Hourly Data Report for September 19, 2016

SHEARWATER RCS
NOVA SCOTIA

44°37'47.000" N
63°30'48.000" W
24.00 m
8205092
71264
AAW

Download Data

Hourly Data (September 2016)
Hourly Data Report for September 19, 2016
TIME Temp Definition
°C
Dew Point Definition
°C
Rel Hum Definition
%
Wind Dir Definition
10's deg

Wind Spd Definition
km/h
Visibility Definition
km
Stn Press Definition
kPa
Hmdx Definition


Wind Chill Definition


Weather Definition


00:00 18.5 17.4 94 21 12   101.59     LegendNANA
01:00 18.2 17.2 94 22 8   101.58     LegendNANA
02:00 18.4 17.5 95 21 12   101.57     LegendNANA
03:00 18.2 17.3 94 25 4   101.55     LegendNANA
04:00 18.5 17.5 94 25 4   101.58     LegendNANA
05:00 18.3 17.4 95 26 2   101.61     LegendNANA
06:00 18.4 17.5 95 27 3   101.63     LegendNANA
07:00 18.5 17.6 94 24 3   101.65     LegendNANA
08:00 18.4 17.5 95 15 4   101.68     LegendNANA
09:00 18.8 18.0 95 24 4   101.78     LegendNANA
10:00 19.8 18.8 94 20 3   101.80     LegendNANA
11:00
12:00 19.1 17.5 91 15 8   101.73     LegendNANA
13:00 19.9 18.8 93 16 7   101.72     LegendNANA
14:00 21.1 19.2 89 16 6   101.69 28   LegendNANA
15:00 20.2 17.9 86 15 11   101.70 26   LegendNANA
16:00 20.5 18.2 87 14 5   101.72 27   LegendNANA
17:00 19.6 17.9 90 14 5   101.70     LegendNANA
18:00 19.4 17.9 91 13 5   101.69     LegendNANA
19:00 18.0 16.7 92 17 7   101.73     LegendNANA
20:00 18.4 17.5 95 13 5   101.73     LegendNANA
21:00 18.0 17.2 95 12 2   101.74     LegendNANA
22:00 17.9 17.2 95 7 7   101.71     LegendNANA
23:00 18.1 17.3 96   0   101.70     LegendNANA

Notes on Data Quality.

Legend

  • E = Estimated
  • M = Missing
  • NA = Not Available*
  • [empty] = Indicates an unobserved value
Date modified: